Location: Bieujac
(44.5398°N, 0.1549°W)
Time: 04:41:33
(UTC+00:00)

Cosmos 1980 Rocket - Pass Details

Date: 17 November 2019
Orbit: 828 x 851 km, 71.0° (Epoch: 15 December)

Event Time Altitude Azimuth Distance (km) Brightness Sun altitude
Exits shadow 05:01:37 37° 247° (WSW) 1,306 2.7 -20.8°
Drops below altitude 10° 05:06:26 10° 189° (S) 2,462 4.6 -20.0°
Sets 05:09:02 0° 181° (S) 3,390 5.4 -19.5°
